This is the latest recevied weather packets stored in our database for station/object KC1OEK-13. If no packets are shown the sender has not sent any weather packets the latest 10 day(s).
| Time | Temp. | Humidity | Pressure | Rain* | Wind** | Luminosity | Snow |
|---|---|---|---|---|---|---|---|
| 1787962651 | 20.56° C | 90% | 1019.2 hPa | 0 mm | - | 0 W/m² | - |
| 1787962346 | 20.56° C | 89% | 1019.4 hPa | 0 mm | - | 0 W/m² | - |
| 1787962041 | 21.11° C | 88% | 1019.1 hPa | 0 mm | - | 0 W/m² | - |
| 1787961735 | 21.11° C | 86% | 1019.1 hPa | 0 mm | - | 0 W/m² | - |
| 1787961434 | 21.67° C | 86% | 1018.8 hPa | 0 mm | - | 0 W/m² | - |
| 1787961134 | 21.67° C | 86% | 1019.1 hPa | 0 mm | - | 0 W/m² | - |
| 1787960832 | 21.67° C | 85% | 1019.1 hPa | 0 mm | - | 0 W/m² | - |
| 1787960528 | 21.67° C | 84% | 1019.2 hPa | 0 mm | - | 1 W/m² | - |
| 1787960227 | 22.22° C | 84% | 1019.1 hPa | 0 mm | - | 3 W/m² | - |
| 1787959921 | 22.22° C | 84% | 1019.1 hPa | 0 mm | - | 5 W/m² | - |
| 1787959616 | 22.78° C | 83% | 1019.1 hPa | 0 mm | - | 8 W/m² | - |
| 1787959316 | 22.78° C | 83% | 1018.9 hPa | 0 mm | - | 12 W/m² | - |
| 1787959010 | 22.78° C | 83% | 1018.9 hPa | 0 mm | - | 16 W/m² | - |
| 1787958706 | 22.78° C | 81% | 1018.8 hPa | 0 mm | - | 24 W/m² | - |
| 1787958401 | 23.33° C | 81% | 1018.8 hPa | 0 mm | - | 27 W/m² | - |
| 1787958097 | 23.33° C | 81% | 1018.5 hPa | 0 mm | - | 31 W/m² | - |
| 1787957796 | 23.33° C | 81% | 1018.8 hPa | 0 mm | - | 37 W/m² | - |
| 1787957490 | 23.89° C | 80% | 1018.7 hPa | 0 mm | - | 40 W/m² | - |
| 1787957185 | 24.44° C | 78% | 1018.6 hPa | 0 mm | - | 45 W/m² | - |
| 1787956880 | 25° C | 76% | 1018.7 hPa | 0 mm | - | 47 W/m² | - |
| 1787956580 | 25° C | 75% | 1018.6 hPa | 0 mm | - | 59 W/m² | - |
| 1787956275 | 25° C | 75% | 1018.4 hPa | 0 mm | - | 59 W/m² | - |
| 1787955970 | 25° C | 74% | 1018.6 hPa | 0 mm | - | 54 W/m² | - |
| 1787955665 | 25.56° C | 73% | 1018.5 hPa | 0 mm | - | 52 W/m² | - |
| 1787955361 | 26.67° C | 70% | 1018.6 hPa | 0 mm | - | 60 W/m² | - |
* Rain latest hour (hover to see other rain measurements)
** Current wind speed in m/s (hover to see current wind gust speed)